Tracking 25734 objects as of 28-May-2022
HD Live streaming from Space Station
objects crossing your sky now

USA 24

Track USA 24 now!
10-day predictions
USA 24 is classified as:


NORAD ID: 18010
Int'l Code: 1987-043F
Perigee: 377.0 km
Apogee: 1,785.8 km
Inclination: 63.3 °
Period: 106.7 minutes
Semi major axis: 7452 km
RCS: Unknown
Launch date: May 15, 1987
Source: United States (US)
Launch site: AIR FORCE WESTERN TEST RANGE (AFWTR)
aabbcc
Your satellite tracking list
Your tracking list is empty




NASA's NSSDC Master Catalog

Two Line Element Set (TLE):
1 18010U 87043F   22147.82988005  .00010503  00000-0  73342-3 0  9999
2 18010  63.2997  64.6567 0945198  76.5237 293.9228 13.49461316142941
Source of the keplerian elements: McCants